COSMOS 1275 DEB

Satellite information

Favourite Embed

Satellite Type and Status

DEBRISIN ORBIT

Key statistics

Satellite COSMOS 1275 DEB at a glance.

Uptime

16264

Days in orbit

Revolutions

≈ 14.3

Per day

Orbit

LEO

Low Earth Orbit

Inclination

82.8

Latest

Satellite identification and parameters

Extended collection of information and parameters for COSMOS 1275 DEB.

Object identification

Identified? True

Debris? True

Object name: COSMOS 1275 DEB

International designator: 1981-053PX

Object number (NORAD): 42111

Object ID (CCSDS): 42111

Country: COMMONWEALTH OF INDEPENDENT STATES (CIS)

Current information (Y/N): Y

RCS size: SMALL

Orbital parameters

Period: 100.581 minutes

Inclination: 82.804 deg

SMA: 7164.258 km

Apoapsis: 816.78 km

Periapsis: 755.466 km

RAAN: 68.1359 deg

Eccentricy: 0.00427912

Argument of periapsis: 193.7148 deg

Mean anomaly: 166.2881 deg

Mean motion: 14.31679893 rev/day

Mean motion (dot): 0.00008722 rev/day2

B* drag term: 0.0032313378 1/REarth

Two-line elements (TLE)

Creation date: Dec. 11, 2025, 10:54 a.m.

Reference frame: TEME

Reference center: EARTH

Epoch: Dec. 11, 2025, 4:58 a.m. UTC

TLE line 0: 0 COSMOS 1275 DEB

TLE line 1: 1 42111U 81053PX 25345.20736069 .00008722 00000-0 32313-2 0 9991

TLE line 2: 2 42111 82.8040 68.1359 0042791 193.7148 166.2881 14.31679893622868

Live tracking on map

Real-time ground track for satellite COSMOS 1275 DEB.

In-orbit conjunctions

A list of the most updated potential collisions computed for object COSMOS 1275 DEB.

Target Orbit TCA Probability of collision Miss distance Type
COSMOS 372 LEO 2025-10-13 03:17:36 0.0002269964 516.0 (m) PAYLOAD
PSLV R/B SSO 2024-10-27 07:00:43 0.0001576762 147.0 (m) ROCKET BODY
CZ-6A DEB SSO 2024-08-31 08:58:56 0.0001027795 113.0 (m) DEBRIS

Associated space launch

Navigation satellite providing location information for the Tsiklon-B navigation system

COSMOS 1275 DEB was lifted into orbit during the mission ‘Kosmos-3M | Parus 27’, on board a Kosmos-3M space rocket.

The launch took place on June 4, 1981, 3:41 p.m. from 132/2.

For more information about the launch, click the button.

Launch to space Kosmos-3M | Parus 27
Kosmos-3M | Parus 27

Agency: N/A

Status: Launch Successful

Launch date: June 4, 1981, 3:41 p.m. UTC

Rocket: Kosmos-3M

Launch pad: 132/2

Location: Plesetsk Cosmodrome, Russian Federation

...

Latest news about this satellite

There are no fresh news available about this satellite. Check back as we update our databases every day.


Newsletter sign-up

Weekly statistics, charts and insights to help you stay on top of the space industry.